When you browse on this site, cookies collect data to enhance your experience and personalize the content and advertising you see.
Visit our Privacy Policy to learn more. By continuing to use the site, you agree to this use of cookies and data.
  • In Spain
  • List of Countries
  • For 7 days
  • Water Temperature
  • Weather Map
  • Weather Widgets
  • user-avatar
    Login

    Hourly Weather Szeged

    Today, 28 May, Thursday

    Time Temperature Precipitation Wind Pressure Humidity
    00:00 +11°C° 0 mm 3 mps 761 mmHg 81%
    01:00 +11°C° 0 mm 3 mps 760 mmHg 82%
    02:00 +11°C° 0 mm 3 mps 760 mmHg 83%
    03:00 +10°C° 0 mm 3 mps 760 mmHg 84%
    04:00 +10°C° 0 mm 3 mps 760 mmHg 85%
    05:00 +12°C° 0 mm 3 mps 760 mmHg 80%
    06:00 +13°C° 0 mm 4 mps 760 mmHg 74%
    07:00 +15°C° 0 mm 4 mps 759 mmHg 69%
    08:00 +17°C° 0.1 mm 4 mps 759 mmHg 63%
    09:00 +19°C° 0.1 mm 4 mps 759 mmHg 58%
    10:00 +20°C° 0.1 mm 4 mps 759 mmHg 52%
    11:00 +21°C° 0.1 mm 4 mps 758 mmHg 50%
    12:00 +21°C° 0.1 mm 5 mps 758 mmHg 48%
    13:00 +22°C° 0.1 mm 5 mps 757 mmHg 46%
    14:00 +21°C° 0 mm 5 mps 757 mmHg 47%
    15:00 +21°C° 0 mm 5 mps 756 mmHg 48%
    16:00 +21°C° 0 mm 5 mps 756 mmHg 49%
    17:00 +20°C° 0.1 mm 4 mps 756 mmHg 56%
    18:00 +18°C° 0.1 mm 3 mps 756 mmHg 64%
    19:00 +17°C° 0.1 mm 2 mps 756 mmHg 71%
    20:00 +16°C° 0.1 mm 2 mps 756 mmHg 76%
    21:00 +13°C° 0.1 mm 3 mps 756 mmHg 80%
    22:00 +12°C° 0.1 mm 3 mps 756 mmHg 85%
    23:00 +12°C° 0 mm 3 mps 756 mmHg 86%

    Tomorrow, 29 May, Friday

    Time Temperature Precipitation Wind Pressure Humidity
    00:00 +11°C° 0 mm 3 mps 756 mmHg 88%
    01:00 +11°C° 0 mm 3 mps 756 mmHg 89%
    02:00 +11°C° 0 mm 3 mps 756 mmHg 90%
    03:00 +11°C° 0 mm 3 mps 757 mmHg 90%
    04:00 +10°C° 0 mm 3 mps 757 mmHg 90%
    05:00 +12°C° 0 mm 3 mps 757 mmHg 85%
    06:00 +13°C° 0 mm 4 mps 757 mmHg 81%
    07:00 +14°C° 0 mm 4 mps 757 mmHg 76%
    08:00 +17°C° 0.3 mm 4 mps 757 mmHg 72%
    09:00 +18°C° 0.3 mm 4 mps 757 mmHg 67%
    10:00 +20°C° 0.3 mm 4 mps 757 mmHg 62%
    11:00 +20°C° 1 mm 4 mps 756 mmHg 61%
    12:00 +20°C° 1 mm 4 mps 756 mmHg 59%
    13:00 +21°C° 1 mm 5 mps 756 mmHg 58%
    14:00 +20°C° 0.9 mm 5 mps 755 mmHg 60%
    15:00 +20°C° 0.9 mm 4 mps 755 mmHg 63%
    16:00 +19°C° 0.9 mm 4 mps 755 mmHg 65%
    17:00 +18°C° 0.7 mm 3 mps 755 mmHg 71%
    18:00 +17°C° 0.7 mm 3 mps 755 mmHg 76%
    19:00 +16°C° 0.7 mm 2 mps 755 mmHg 81%
    20:00 +15°C° 0 mm 2 mps 755 mmHg 83%
    21:00 +14°C° 0 mm 2 mps 755 mmHg 85%
    22:00 +13°C° 0 mm 2 mps 755 mmHg 88%
    23:00 +13°C° 0 mm 2 mps 755 mmHg 88%

    Day after tomorrow, 30 May, Saturday

    Time Temperature Precipitation Wind Pressure Humidity
    00:00 +12°C° 0 mm 2 mps 755 mmHg 88%
    01:00 +12°C° 0 mm 2 mps 755 mmHg 89%
    02:00 +12°C° 0 mm 2 mps 755 mmHg 89%
    03:00 +10°C° 0 mm 2 mps 755 mmHg 89%
    04:00 +10°C° 0 mm 2 mps 755 mmHg 89%
    05:00 +12°C° 0 mm 2 mps 755 mmHg 85%
    06:00 +13°C° 0 mm 2 mps 755 mmHg 82%
    07:00 +14°C° 0 mm 2 mps 756 mmHg 78%
    08:00 +15°C° 0 mm 2 mps 756 mmHg 71%
    09:00 +17°C° 0 mm 3 mps 755 mmHg 64%
    10:00 +19°C° 0 mm 3 mps 755 mmHg 58%
    11:00 +19°C° 0.1 mm 3 mps 755 mmHg 56%
    12:00 +20°C° 0.1 mm 3 mps 755 mmHg 54%
    13:00 +20°C° 0.1 mm 3 mps 754 mmHg 52%
    14:00 +20°C° 0.3 mm 3 mps 754 mmHg 56%
    15:00 +19°C° 0.3 mm 3 mps 754 mmHg 60%
    16:00 +19°C° 0.3 mm 4 mps 753 mmHg 63%
    17:00 +18°C° 0.4 mm 3 mps 753 mmHg 68%
    18:00 +17°C° 0.4 mm 3 mps 753 mmHg 73%
    19:00 +16°C° 0.4 mm 2 mps 753 mmHg 78%
    20:00 +15°C° 0 mm 2 mps 753 mmHg 80%
    21:00 +14°C° 0 mm 2 mps 754 mmHg 81%
    22:00 +13°C° 0 mm 2 mps 754 mmHg 82%
    23:00 +12°C° 0 mm 2 mps 754 mmHg 84%

    31 May, Sunday

    Time Temperature Precipitation Wind Pressure Humidity
    00:00 +11°C° 0 mm 3 mps 754 mmHg 85%
    01:00 +10°C° 0 mm 3 mps 754 mmHg 86%
    02:00 +10°C° 0 mm 3 mps 753 mmHg 87%
    03:00 +9°C° 0 mm 3 mps 753 mmHg 88%
    04:00 +8°C° 0 mm 3 mps 753 mmHg 90%
    05:00 +8°C° 0 mm 4 mps 753 mmHg 86%
    06:00 +11°C° 0 mm 4 mps 753 mmHg 81%
    07:00 +12°C° 0 mm 5 mps 753 mmHg 77%
    08:00 +13°C° 0 mm 6 mps 753 mmHg 73%
    09:00 +15°C° 0 mm 6 mps 753 mmHg 68%
    10:00 +16°C° 0 mm 6 mps 753 mmHg 64%
    11:00 +16°C° 0 mm 7 mps 753 mmHg 65%
    12:00 +17°C° 0 mm 7 mps 752 mmHg 65%
    13:00 +17°C° 0 mm 7 mps 752 mmHg 65%
    14:00 +17°C° 0 mm 7 mps 752 mmHg 67%
    15:00 +17°C° 0 mm 7 mps 752 mmHg 68%
    16:00 +16°C° 0 mm 7 mps 752 mmHg 69%
    17:00 +15°C° 0 mm 7 mps 752 mmHg 72%
    18:00 +15°C° 0 mm 6 mps 752 mmHg 75%
    19:00 +14°C° 0 mm 6 mps 752 mmHg 78%
    20:00 +13°C° 0 mm 5 mps 752 mmHg 79%
    21:00 +13°C° 0 mm 5 mps 752 mmHg 80%
    22:00 +12°C° 0 mm 4 mps 752 mmHg 82%
    23:00 +12°C° 0 mm 4 mps 752 mmHg 83%

    1 June, Monday

    Time Temperature Precipitation Wind Pressure Humidity
    00:00 +12°C° 0 mm 4 mps 752 mmHg 84%
    01:00 +12°C° 0 mm 3 mps 751 mmHg 85%
    02:00 +12°C° 0.1 mm 3 mps 751 mmHg 87%
    03:00 +12°C° 0.1 mm 4 mps 751 mmHg 89%
    04:00 +12°C° 0.1 mm 4 mps 751 mmHg 91%
    05:00 +13°C° 0.1 mm 4 mps 751 mmHg 90%
    06:00 +14°C° 0.1 mm 4 mps 751 mmHg 88%
    07:00 +15°C° 0.1 mm 4 mps 751 mmHg 87%
    08:00 +17°C° 0.2 mm 4 mps 751 mmHg 81%
    09:00 +17°C° 0.2 mm 5 mps 752 mmHg 75%
    10:00 +19°C° 0.2 mm 5 mps 752 mmHg 69%
    11:00 +20°C° 0.3 mm 5 mps 751 mmHg 68%
    12:00 +20°C° 0.3 mm 6 mps 751 mmHg 66%
    13:00 +20°C° 0.3 mm 6 mps 751 mmHg 65%
    14:00 +20°C° 0.3 mm 6 mps 751 mmHg 65%
    15:00 +20°C° 0.3 mm 7 mps 751 mmHg 65%
    16:00 +20°C° 0.3 mm 7 mps 751 mmHg 65%
    17:00 +19°C° 0.1 mm 6 mps 751 mmHg 71%
    18:00 +17°C° 0.1 mm 5 mps 751 mmHg 77%
    19:00 +15°C° 0.1 mm 4 mps 751 mmHg 83%
    20:00 +14°C° 0 mm 4 mps 751 mmHg 85%
    21:00 +13°C° 0 mm 4 mps 751 mmHg 87%
    22:00 +12°C° 0 mm 4 mps 751 mmHg 89%
    23:00 +12°C° 0 mm 4 mps 751 mmHg 90%

    2 June, Tuesday

    Time Temperature Precipitation Wind Pressure Humidity
    00:00 +11°C° 0 mm 4 mps 751 mmHg 90%
    01:00 +11°C° 0 mm 4 mps 751 mmHg 91%
    02:00 +11°C° 0 mm 4 mps 751 mmHg 92%
    03:00 +11°C° 0 mm 3 mps 751 mmHg 94%
    04:00 +11°C° 0 mm 3 mps 751 mmHg 96%
    05:00 +12°C° 0 mm 3 mps 751 mmHg 91%
    06:00 +13°C° 0 mm 3 mps 751 mmHg 87%
    07:00 +14°C° 0 mm 3 mps 752 mmHg 83%
    08:00 +17°C° 0.2 mm 4 mps 752 mmHg 76%
    09:00 +19°C° 0.2 mm 4 mps 752 mmHg 70%
    10:00 +21°C° 0.2 mm 4 mps 752 mmHg 64%
    11:00 +21°C° 0.7 mm 4 mps 752 mmHg 63%
    12:00 +22°C° 0.7 mm 4 mps 752 mmHg 62%
    13:00 +22°C° 0.7 mm 4 mps 751 mmHg 61%
    14:00 +22°C° 0.7 mm 4 mps 751 mmHg 62%
    15:00 +22°C° 0.7 mm 4 mps 751 mmHg 63%
    16:00 +22°C° 0.7 mm 4 mps 750 mmHg 64%
    17:00 +21°C° 0.3 mm 4 mps 750 mmHg 71%
    18:00 +20°C° 0.3 mm 3 mps 750 mmHg 77%
    19:00 +18°C° 0.3 mm 2 mps 750 mmHg 83%
    20:00 +18°C° 0.4 mm 2 mps 750 mmHg 85%
    21:00 +17°C° 0.4 mm 2 mps 751 mmHg 88%
    22:00 +16°C° 0.4 mm 2 mps 751 mmHg 91%
    23:00 +14°C° 0 mm 3 mps 751 mmHg 92%
    Show more